星链-5396 (STARLINK-5396 )

导读

STARLINK-5396是美国SpaceX公司星链(Starlink)项目的卫星,于北京时间2022年12月28日08时发射升空,属于星链星座组网卫星,主要为全球范围内提供高速互联网服务,尤其覆盖偏远地区与网络基础设施薄弱区域,该卫星入轨后参与低轨星座的部署,进一步扩展了星链系统的服务覆盖能力。

基本信息
目录编号:
54867
目录名称:
STARLINK-5396
国际标识:
2022-177AZ
轨道中心:
EARTH
卫星名称:
星链-5396
卫星全名:
星链-5396 (STARLINK-5396 )
卫星状态:
在轨 (已飞行1354 天)
发射日期:
2022-12-28 UTC
国别 :
美国 (US)
星等 :
--
该卫星已列入 空间交会检测服务 Space Conjunction Data Service (SCDS) ,当前飞行风险评估等级: 无高风险
轨道信息
数据来源 国际轨道数据 AOE轨道数据
星历时间 2026-09-12T09:55:51+0800
11小时前
查看轨道信息
2026-09-10T22:00:00+0800
1天前
查看轨道信息
半长轴 6861.2km 6861.196km
偏心率 0.0000915 0.0000096
轨道倾角 43.003° 43.002°
近地点辐角 260.244° 172.383°
升交点赤经 149.197° 157.653°
平近点角 99.831° 225.001°
近地点 482.435km 482.993km
远地点 483.691km 483.125km
周期 94.267分钟 94.267分钟
每日圈数 15.275755 15.27577
详细信息
固有亮度:
5
最大亮度:
2.5
卫星平台:
Starlink v1.5
覆盖范围:
全球
运营商:
太空探索技术公司
运营商所在国:
美国
制造商(研发单位):
太空探索技术公司
制造商所在国:
美国
使用方式:
暂无
卫星简介
星链(Starlink)计划是由太空探索技术公司(SpaceX)提出的一个巨型低轨卫星互联网星座项目,计划在2019年至2024年间在太空搭建由约1.2万颗卫星组成的“星链”网络,其中1584颗将部署在地球上空550千米处的近地轨道,并从2020年开始工作。该卫星仍在工作。
2D轨道图
3D轨道图
轨道高度分析图
轨道倾角分析图
轨道综合分析图
查看轨道综合分析图
交会数据列表
事件ID 空间交会对象 最接近时刻(TCA) 交会距离 交会风险概率(CRP) 交会风险指数(CRI) 操作
CDM_260914-151505-486706-656322
2026-09-14T
15:15:40+0000
0.528 km
远距离
1.38926E-4 高风险 0.78
CDM_260914-125505-486706-764722
OBJECT B (67647)
2026-09-14T
12:55:12+0000
1.140 km
极远距离
1.6704E-5 中风险 0.59
CDM_260915-012705-486706-656321
2026-09-15T
01:27:39+0000
1.379 km
极远距离
6.59925E-6 低风险 0.51
CDM_260913-215305-486705-718823
OBJECT Y (57188)
2026-09-13T
21:53:06+0000
2.808 km
极远距离
1.433304E-6 低风险 0.38
CDM_260914-143401-312105-486724
SL-3 R/B (13121)
2026-09-14T
14:34:55+0000
2.236 km
极远距离
1.337152E-6 低风险 0.38
CDM_260914-134105-486706-656321
2026-09-14T
13:41:31+0000
2.684 km
极远距离
1.213836E-6 低风险 0.37
CDM_260915-030105-486706-656321
2026-09-15T
03:01:48+0000
2.934 km
极远距离
1.075803E-6 低风险 0.36
与全量物体交会距离演化趋势
与全量物体交会风险概率演化趋势